[Iaude] MPEC B27: 2019 AE13 [a=2.09,e=0.47,i=17.4,H=19.2]

mpec at mpcdb1.cfa.harvard.edu mpec at mpcdb1.cfa.harvard.edu
Thu Jan 17 10:45:21 EST 2019


M.P.E.C. 2019-B27                                Issued 2019 Jan. 17, 15:41 UT
 
     The Minor Planet Electronic Circulars contain information on unusual
         minor planets and routine data on comets.  They are published
    on behalf of Division F of the International Astronomical Union by the
          Minor Planet Center, Smithsonian Astrophysical Observatory,
                          Cambridge, MA 02138, U.S.A.

             Prepared using the Tamkin Foundation Computer Network

                              MPC at CFA.HARVARD.EDU
            URL https://www.minorplanetcenter.net/    ISSN 1523-6714


                                   2019 AE13
 
Observations:
     K19A13E* C2019 01 09.53658 10 35 54.605+43 27 17.99         22.0 wUEB027F51
     K19A13E  C2019 01 09.54866 10 35 53.716+43 27 27.00         22.0 wUEB027F51
     K19A13E  C2019 01 09.56076 10 35 52.808+43 27 35.88         21.5 wUEB027F51
     K19A13E  C2019 01 09.57289 10 35 51.900+43 27 44.60         22.0 wUEB027F51
     K19A13E KC2019 01 10.32068310 34 58.46 +43 36 41.1          21.7 VuEB027H21
     K19A13E KC2019 01 10.33531010 34 57.36 +43 36 51.5          21.6 VuEB027H21
     K19A13E KC2019 01 10.34140410 34 56.89 +43 36 55.9          21.7 VuEB027H21
     K19A13E ^C2019 01 10.66572010 34 32.407+43 40 49.33         21.50GVEB027568
     K19A13E ^C2019 01 10.66667010 34 32.333+43 40 50.02         21.54GVEB027568
     K19A13E ^C2019 01 10.66764710 34 32.256+43 40 50.69         21.52GVEB027568
     K19A13E  C2019 01 17.42609 10 24 51.77 +44 55 23.6          22.0 GVEB027V06
     K19A13E  C2019 01 17.42869 10 24 51.49 +44 55 25.9          22.0 GVEB027V06
     K19A13E  C2019 01 17.43128 10 24 51.24 +44 55 27.2          21.4 GVEB027V06
     K19A13E  C2019 01 17.43388 10 24 51.00 +44 55 28.9          21.9 GVEB027V06
 
Observer details:
568 Mauna Kea.  Observers R. Wainscoat, D. Woodworth, S. Prunet.  Measurers
    R. Weryk, R. Wainscoat.  3.6-m Canada-France-Hawaii Telescope + CCD.
F51 Pan-STARRS 1, Haleakala.  Observers J. Bulger, T. Lowe, A. Schultz,
    M. Willman.  Measurers K. Chambers, S. Chastel, L. Denneau, J. Fairlamb,
    H. Flewelling, M. Huber, C.-C. Lin, E. Magnier, Y. Ramanjooloo,
    R. Wainscoat, R. Weryk.  1.8-m Ritchey-Chretien + CCD.
H21 Astronomical Research Observatory, Westfield.  Observer R. Holmes.
    Measurers S. Foglia, L. Buzzi, T. Linder, R. Holmes.  0.81-m f/4.0
    astrograph + CCD.
V06 Catalina Sky Survey-Kuiper.  Observer D. C. Fuls.  Measurers
    B. M. Africano, E. J. Christensen, G. A. Farneth, D. C. Fuls, A. R. Gibbs,
    A. D. Grauer, H. Groeller, R. A. Kowalski, S. M. Larson, G. J. Leonard,
    R. L. Seaman, F. C. Shelly.  1.55-m reflector + CCD.
 
Orbital elements:
2019 AE13                                                Earth MOID = 0.1186 AU
Epoch 2019 Apr. 27.0 TT = JDT 2458600.5                 MPC
M  87.22407              (2000.0)            P               Q
n   0.32546548     Peri.  347.63576     +0.94961110     -0.27598426
a   2.0931455      Node    29.71629     +0.30700185     +0.72349909
e   0.4702474      Incl.   17.43978     +0.06315560     +0.63275727
P   3.03           H   19.2           G   0.15           U   7
Residuals in seconds of arc
190109 F51  0.1-  0.1-    190110 H21  0.1+  0.1+    190117 V06  0.0   0.5-
190109 F51  0.1+  0.0     190110 H21  0.1+  0.1+    190117 V06  0.2-  0.3+
190109 F51  0.0   0.1+    190110 568  0.0   0.1-    190117 V06  0.0   0.0
190109 F51  0.0   0.0     190110 568  0.0   0.1-    190117 V06  0.2+  0.2+
190110 H21  0.1-  0.3+    190110 568  0.0   0.1-

Ephemeris:
2019 AE13                a,e,i = 2.09, 0.47, 17                  q = 1.1088
Date    TT    R. A. (2000) Decl.     Delta      r     Elong.  Phase     V
2018 12 18    10 46 11.7 +38 48 30   1.1049  1.7609   114.8    30.5    22.0
...
2019 01 02    10 42 56.1 +41 52 46   1.0784  1.8538   128.0    24.7    21.8
...
2019 01 10    10 35 21.6 +43 32 50   1.0752  1.9025   135.0    21.4    21.8
...
2019 01 16    10 27 06.9 +44 40 44   1.0798  1.9385   139.9    19.1    21.8
2019 01 17    10 25 32.9 +44 51 04   1.0812  1.9444   140.6    18.7    21.8
2019 01 18    10 23 55.8 +45 01 03   1.0828  1.9504   141.3    18.4    21.8
...
2019 01 24    10 13 17.9 +45 52 51   1.0969  1.9857   145.1    16.5    21.8
...
2019 02 01    09 57 23.4 +46 35 37   1.1279  2.0322   148.1    14.8    21.8
...
2019 02 16    09 27 42.3 +46 23 00   1.2263  2.1168   145.7    15.2    22.1

A. U. Tomatic                (C) Copyright 2019 MPC           M.P.E.C. 2019-B27



More information about the Iaude mailing list